Regional Weather Roundup
Issued by NWS Jackson, KY

Home | Current Version | Previous Version | Graphics & Text | Print | Product List | Glossary On
Versions: 1 2 3 4 5 6 7 8 9 10 11 12 13 14 15 16 17 18 19 20 21 22 23 24 25 26 27 28 29 30 31 32 33 34 35 36 37 38 39 40 41 42 43 44 45 46 47 48 49 50
000
ASUS43 KJKL 242010
RWRJKL

EAST KENTUCKY HOURLY WEATHER ROUNDUP
NATIONAL WEATHER SERVICE JACKSON KY
400 PM EDT THU JUL 24 2014

NOTE: "FAIR" INDICATES FEW OR NO CLOUDS BELOW 12,000 FEET WITH
NO SIGNIFICANT WEATHER AND/OR OBSTRUCTIONS TO VISIBILITY.

* THESE REPORTS ARE NOT UNDER NWS QUALITY CONTROL AND MAY NOT
  REPORT WEATHER SUCH AS PRECIPITATION AND FOG.

KYZ079-080-083-085-087-088-110-112-115-119-120-242100
...EASTERN KENTUCKY...

CITY           SKY/WX    TMP DP  RH WIND       PRES   REMARKS
JACKSON        CLOUDY    68  62  81 CALM      30.03S
LONDON         CLOUDY    71  63  75 N9        30.03R
SOMERSET*      CLOUDY    72  61  68 NE15      30.03S
MONTICELLO*    PTSUNNY   76  68  76 CALM      30.04R
WILLIAMSBURG*  CLOUDY    72  68  88 N8        30.02S
MIDDLESBORO*   CLOUDY    76  69  78 N13       29.99S
HARLAN APT*    CLOUDY    72  66  83 MISG      30.01R
BLACK MTN*       N/A     63  63 100 N5          N/A
PIKEVILLE APT* CLOUDY    63  63 100 N7        30.02S
BIG SANDY*     CLOUDY    66  63  91 NE5       30.02S
MOREHEAD APT*  CLOUDY    72  59  64 CALM      30.06S
$$

KYZ035-036-041-042-044-050-067-078-099-242100
...CENTRAL KENTUCKY...

CITY           SKY/WX    TMP DP  RH WIND       PRES   REMARKS
MT STERLING*   CLOUDY    72  61  68 NE9       30.05F
FLEMING/MASON* PTSUNNY   73  57  56 N7        30.04F
DANVILLE*      CLOUDY    72  59  64 NE9       30.06R
RICHMOND*      PTSUNNY   72  59  64 N8        30.04S
LEXINGTON      MOSUNNY   78  57  48 NE9       30.04S
FRANKFORT      MOSUNNY   76  54  46 VRB7      30.04S
$$

KYZ091>093-OHZ055-061-077-WVZ005-015-034-035-042-242100
...SOUTHERN OHIO/WEST VIRGINIA...

CITY           SKY/WX    TMP DP  RH WIND       PRES   REMARKS
COVINGTON      PTSUNNY   75  53  46 N13       30.06S
COLUMBUS       MOSUNNY   76  55  48 N6        30.03S
DAYTON         PTSUNNY   72  54  53 NE13      30.09R
WILMINGTON     PTSUNNY   75  54  47 N13G20    30.05S
HUNTINGTON     PTSUNNY   72  62  71 VRB3      30.00F
CHARLESTON     CLOUDY    67  65  93 N5        30.00S
PINEVILLE*     CLOUDY    75  69  83 MISG      30.03R
BECKLEY        CLOUDY    68  64  87 N12       30.01R
BLUEFIELD      CLOUDY    71  66  84 W9        30.02R THUNDER
$$

VAZ002-007-008-TNZ017-027-036-066-071-242100
...SOUTHWEST VIRGINIA/EAST TENNESSEE...

CITY           SKY/WX    TMP DP  RH WIND       PRES   REMARKS
WISE*          CLOUDY    68  66  94 NW8       30.05R
JONESVILLE*    MOCLDY    77  68  73 NW9G17    29.99R
ABINGDON*      PTSUNNY   69  67  92 NW3       29.99S
BRISTOL        TSTM      73  67  81 NW9       29.96S
KNOXVILLE      PTSUNNY   84  69  60 NW7       29.93F
OAK RIDGE      SUNNY     88  67  49 W8        29.94F HX  91
CROSSVILLE     MOSUNNY   77  67  71 N9        30.02S
NASHVILLE      MOSUNNY   82  65  56 VRB6      30.01F
$$

...KEY TO REMARKS...
VSB - VISIBILITY IN MILES
WCI - WIND CHILL INDEX
HX  - HEAT INDEX

$$



USA.gov is the U.S. government's official web portal to all federal, state and local government web resources and services.